sat.trackr.live / text

‹ back to catalog

SKYSAT-C6

NORAD 42992 · 2017-068F

PAYLOAD ACTIVE UNKNOWN

§ Identity

Operator
Country
US
Launch date
2017-10-31
Launch site
AFWTR
Launch vehicle
Mass (kg)
RCS (m²)

Purposes: earth_obs

External: N2YO · Heavens-Above · Gunter

§ Orbital elements

Epoch: 2026-09-20T04:18:54.148032Z

Period
93.86 min
Inclination
97.4701°
Eccentricity
0.0002054
Mean motion
15.34155364 rev/d
Perigee alt
462.0 km
Apogee alt
464.8 km
Semi-major
6,841.6 km
B*
1.8824e-4
RAAN
41.7954°
Arg perigee
134.4397°
Mean anomaly
225.7014°
Rev number
49,688

§ Raw data

SKYSAT-C61 42992U 17068F   26263.17979338  .00006141  00000+0  18824-3 0  99912 42992  97.4701  41.7954 0002054 134.4397 225.7014 15.34155364496881

JSON: /api/v1/satellites/42992 · /tle

For live sub-satellite position, see the globe view (requires WebGL).

§ Visibility from observer

Set your observer location to see the next 7 days of passes ≥ 10°. The values pass through the URL so the page stays shareable.

No JS? Fill the form by hand. The geolocation button needs JavaScript.